User: anonymous   Login
Location: Unspecified
(0.0000°N, 0.0000°E)
Time: 00:05:45
(UTC+00:00)
Language:

Shinsei - Orbit

View from above orbital plane
View from above orbital plane
View from above satellite
View from above satellite

Ground track
Ground track

The orbit data is extracted from the following two-line orbital elements,

1  5485U 71080A   17172.72346591 +.00000068 +00000-0 +82969-4 0  9995
2  5485 032.0573 264.3068 0640728 298.5335 055.2203 12.74124180130556
Epoch (UTC): 21 June 2017 17:21:47
Eccentricity: 0.0640728
inclination: 32.0573°
perigee height: 869 km
apogee height: 1861 km
right ascension of ascending node: 264.3068°
argument of perigee: 298.5335°
revolutions per day: 12.74124180
mean anomaly at epoch: 55.2203°
orbit number at epoch: 13055

The dashed part of the orbit path shows where the satellite is in the earth's shadow,  

DLR